Dashboard

GC7XB57 - 09# De Blauwbloezen

by Expie

published: Wed, 12 Sep 2018 8:04:00 am

Certitude Solution



Puzzle stats
101 Woo-Hoo!
461 D'Oh!
Latest activity:
Tue, 18 Sep 2018
Note that some of those attempts may have been anonymous.



You can subscribe to an RSS feed for:
 this puzzle
 Expie's puzzles
 puzzles in N50 E004 quadrangle
 puzzles in Vlaams-Brabant
 all puzzles

Your geocaching name is unknown, please sign in to identify yourself. How does it work?

Puzzle solvers, you can certify your solution here:
Show solution 
Show attempts 

(keyword required)
  Stay anonymous

Certified solvers

RankUserTime (Brussels, Europe)
1.KoidreamWed, 12 Sep 2018 9:08:25 am
2.dirk007Wed, 12 Sep 2018 9:19:50 am
3.GeroMinosWed, 12 Sep 2018 10:04:23 am
4.DwiggerWed, 12 Sep 2018 10:36:17 am
5.soyoyastWed, 12 Sep 2018 10:42:50 am
6.kadeekesWed, 12 Sep 2018 11:01:21 am
7.Sabbi17Wed, 12 Sep 2018 11:13:09 am
8.WaldogWed, 12 Sep 2018 12:33:08 pm
9.johnny lightningWed, 12 Sep 2018 1:00:00 pm
10.krisalninWed, 12 Sep 2018 1:18:28 pm
11.Edine4geoWed, 12 Sep 2018 2:39:30 pm
12.Bruintje.de.beerWed, 12 Sep 2018 2:52:46 pm
13.ZwuzzeWed, 12 Sep 2018 3:39:26 pm
14.famandusWed, 12 Sep 2018 3:45:25 pm
15.badmintonnersWed, 12 Sep 2018 4:26:47 pm
16.heksemie anirca62Wed, 12 Sep 2018 4:43:54 pm
17.de vliegenvangersWed, 12 Sep 2018 5:41:41 pm
18.BriSan.Wed, 12 Sep 2018 5:51:49 pm
19.sweetjoeWed, 12 Sep 2018 6:00:55 pm
20.Hannah_NWed, 12 Sep 2018 6:04:40 pm
21.snollebollekesWed, 12 Sep 2018 6:26:38 pm
22.EveRan2013Wed, 12 Sep 2018 6:32:04 pm
23.ErannWed, 12 Sep 2018 6:44:59 pm
24.jochen419Wed, 12 Sep 2018 7:07:20 pm
25.team fredstromWed, 12 Sep 2018 7:13:28 pm
26.egelshofWed, 12 Sep 2018 7:28:59 pm
27.haka1Wed, 12 Sep 2018 7:52:02 pm
28.yves2806Wed, 12 Sep 2018 8:12:52 pm
29.TORRAXWed, 12 Sep 2018 8:13:04 pm
30.JoanyoWed, 12 Sep 2018 8:26:25 pm
31.de smileyWed, 12 Sep 2018 8:30:21 pm
32.lifraWed, 12 Sep 2018 10:01:39 pm
33.LuintoSTWed, 12 Sep 2018 10:28:55 pm
34.Stylo & JoskeWed, 12 Sep 2018 10:30:25 pm
35.OGTariWed, 12 Sep 2018 10:39:07 pm
36.Joske0304699Wed, 12 Sep 2018 11:28:23 pm
37.machpatThu, 13 Sep 2018 12:16:07 am
38.Tonmar47Thu, 13 Sep 2018 12:17:55 am
39.casiswaryaThu, 13 Sep 2018 4:39:16 am
40.johannemieThu, 13 Sep 2018 8:08:14 am
41.rommarThu, 13 Sep 2018 9:39:08 am
42.Ricky50Thu, 13 Sep 2018 11:18:50 am
43.JeankeMotarThu, 13 Sep 2018 11:55:36 am
44.daniella&julienThu, 13 Sep 2018 1:04:26 pm
45.The LevellersThu, 13 Sep 2018 1:58:40 pm
46.timmy2730Thu, 13 Sep 2018 1:59:07 pm
47.VOSPAMAThu, 13 Sep 2018 2:03:37 pm
48.HEYTSEThu, 13 Sep 2018 7:58:45 pm
49.wandeltrakkerFri, 14 Sep 2018 4:58:20 am
50.mikee67Fri, 14 Sep 2018 6:52:00 am
51.Dine =)Fri, 14 Sep 2018 1:31:14 pm
52.tinrafFri, 14 Sep 2018 2:55:15 pm
53.liliremFri, 14 Sep 2018 4:33:43 pm
54.Scallie73Fri, 14 Sep 2018 5:23:03 pm
55.kato3Fri, 14 Sep 2018 6:51:09 pm
56.akelaindeweerSat, 15 Sep 2018 2:37:42 pm
57.2donickySat, 15 Sep 2018 6:22:06 pm
58.TeamYarDieSat, 15 Sep 2018 8:50:40 pm
59.DenDulleSat, 15 Sep 2018 9:59:28 pm
60.golodhSat, 15 Sep 2018 10:49:00 pm
61.KHU1Sun, 16 Sep 2018 1:50:31 am
62.metkerrekeSun, 16 Sep 2018 12:22:56 pm
63.GeoschatterSun, 16 Sep 2018 6:21:03 pm
64.KLUPPELSun, 16 Sep 2018 8:32:22 pm
65.SweetgilMon, 17 Sep 2018 11:31:14 am
66.Edenchris1959Mon, 17 Sep 2018 2:04:35 pm
67.veromekeMon, 17 Sep 2018 3:23:24 pm
68.homeboyMon, 17 Sep 2018 9:13:42 pm
69.steven.aMon, 17 Sep 2018 9:59:47 pm
70.BergheboyMon, 17 Sep 2018 10:18:08 pm
71.LuibeerkeTue, 18 Sep 2018 6:36:33 am
72.CrapionTue, 18 Sep 2018 11:18:17 am
73.PtitmamanNeroBelgiumTue, 18 Sep 2018 12:54:50 pm
74.HuntingBTue, 18 Sep 2018 3:39:32 pm
75.AladaubeTue, 18 Sep 2018 5:38:36 pm
76.De woesten en SmurfelTue, 18 Sep 2018 7:07:24 pm
77.Team XennaTue, 18 Sep 2018 9:00:39 pm
78.Team_Griml0rdTue, 18 Sep 2018 9:34:36 pm
79.RudyDCTue, 18 Sep 2018 11:43:56 pm